Regional Weather Roundup
Issued by NWS Bismarck, ND

Home | Current Version | Previous Version | Text Only | Print | Product List | Glossary On
Versions: 1 2 3 4 5 6 7 8 9 10 11 12 13 14 15 16 17 18 19 20 21 22 23 24 25 26 27 28 29 30 31 32 33 34 35 36 37 38 39 40 41 42 43 44 45 46 47 48 49 50
000
ASUS43 KBIS 290802
RWRBIS

NWR BROADCAST TEXT
NATIONAL WEATHER SERVICE BISMARCK ND
300 AM CDT FRI MAY 29 2015

NOTE: "FAIR" INDICATES FEW OR NO CLOUDS BELOW 12,000 FEET WITH NO
SIGNIFICANT WEATHER AND/OR OBSTRUCTIONS TO VISIBILITY.


CITY           SKY/WX    TMP DP  RH WIND       PRES   REMARKS
WILLISTON      CLOUDY    47  35  63 N17       30.21R
MINOT          CLOUDY    49  40  71 N21G32    30.10S
MINOT AFB      CLOUDY    49  48  99 N20G26    30.11R
BISMARCK       CLOUDY    54  49  83 N17G28    30.02R
DICKINSON      CLOUDY    49  45  86 N16G24    30.09R
GARRISON         N/A     50  42  74 N15G32    30.07R
HETTINGER ARPT CLOUDY    51  47  86 N22G31    30.06R
JAMESTOWN      CLOUDY    59  55  87 N22       29.91R
CARRINGTON     CLOUDY    54  54 100 N25       29.99R
OAKES            N/A     61  61 100 CALM      29.86F
STANLEY        CLOUDY    45  43  93 N20G26    30.17R
$$

CITY           SKY/WX    TMP DP  RH WIND       PRES   REMARKS
GRAND FORKS    CLOUDY    52  49  89 N23G32    29.93R
GRAND FORKS AF CLOUDY    51  47  86 N24G35    29.95R
DEVILS LAKE    CLOUDY    52  43  71 N23G33    30.00R
FARGO          LGT RAIN  63  61  93 CALM      29.85S
GRAFTON        CLOUDY    50  50 100 N23G32    29.96R
LANGDON        CLOUDY    48  43  81 N16G25    30.03R
ROLLA          MIX PCPN  45  45 100 N28G33    30.07S
$$

CITY           SKY/WX    TMP DP  RH WIND       PRES   REMARKS
ABERDEEN       CLOUDY    62  60  93 N3        29.86S
MOBRIDGE       CLOUDY    63  60  90 N10       29.89R
BUFFALO          N/A     55  52  89 N16       30.01R
RAPID CITY     CLOUDY    57  51  80 N22G29    30.03R
GLASGOW        CLEAR     40  36  86 NE8       30.27S
SIDNEY         CLOUDY    48  36  61 NW14G21   30.21R
WOLF POINT     CLEAR     41  36  82 N7        30.27R
GLENDIVE       CLOUDY    46  37  71 N18G24    30.21R
MILES CITY     CLOUDY    50  42  74 N17       30.21R
BAKER          CLOUDY    47  43  86 N15G25    30.16R
$$

CITY           SKY/WX    TMP DP  RH WIND       PRES   REMARKS
BILLINGS       CLOUDY    50  48  93 N13       30.25R
GREAT FALLS    CLOUDY    45  44  97 NE6       30.31F FOG
$$



USA.gov is the U.S. government's official web portal to all federal, state and local government web resources and services.